IT9FDP-13 Weather Reports


time (UTC)temp
C
wind
direction
speed
KPH
gust
KPH
rain 1hr
cm
rain 24hr
cm
rain mn
cm
humidity
%
barometer
mb
20260507103521 22 171 16.1 29.0 0.00 0.00 0.00 45 1009.2
20260507103046 23 177 19.3 32.2 0.00 0.00 0.00 42 1009.2
20260507102525 23 183 16.1 27.4 0.00 0.00 0.00 40 1009.2
20260507102025 23 182 14.5 27.4 0.00 0.00 0.00 40 1009.2
20260507101522 23 175 16.1 25.7 0.00 0.00 0.00 40 1009.3
20260507101020 23 178 16.1 29.0 0.00 0.00 0.00 40 1009.3
20260507100526 23 171 12.9 22.5 0.00 0.00 0.00 40 1009.4
20260507100025 23 181 16.1 22.5 0.00 0.00 0.00 41 1009.7
20260507095529 23 174 19.3 30.6 0.00 0.00 0.00 42 1009.6
20260507095023 23 170 19.3 29.0 0.00 0.00 0.00 42 1009.5
20260507094519 23 175 16.1 25.7 0.00 0.00 0.00 41 1009.5
20260507094026 23 176 17.7 25.7 0.00 0.00 0.00 43 1009.6
20260507093521 23 165 17.7 30.6 0.00 0.00 0.00 43 1009.7
20260507093017 23 167 16.1 25.7 0.00 0.00 0.00 43 1009.6
20260507092518 23 185 16.1 24.1 0.00 0.00 0.00 44 1009.6
20260507092024 23 175 14.5 20.9 0.00 0.00 0.00 42 1009.6
20260507091525 23 180 14.5 24.1 0.00 0.00 0.00 41 1009.6
20260507091026 23 185 14.5 27.4 0.00 0.00 0.00 42 1009.5
20260507090526 23 170 12.9 27.4 0.00 0.00 0.00 43 1009.6
20260507090044 23 179 14.5 22.5 0.00 0.00 0.00 43 1009.6
20260507085523 23 169 12.9 24.1 0.00 0.00 0.00 45 1009.7
20260507085028 22 180 12.9 19.3 0.00 0.00 0.00 45 1009.8
20260507084522 22 174 14.5 20.9 0.00 0.00 0.00 46 1009.9
20260507084019 22 163 16.1 25.7 0.00 0.00 0.00 46 1010.0
20260507083525 22 169 11.3 20.9 0.00 0.00 0.00 47 1009.9
20260507083025 22 176 14.5 22.5 0.00 0.00 0.00 49 1010.0
20260507082519 22 174 17.7 24.1 0.00 0.00 0.00 49 1010.0
20260507082021 21 173 12.9 24.1 0.00 0.00 0.00 52 1010.2
20260507081520 21 170 14.5 24.1 0.00 0.00 0.00 52 1010.3
20260507081046 22 166 12.9 25.7 0.00 0.00 0.00 52 1010.4
20260507080524 22 179 11.3 14.5 0.00 0.00 0.00 51 1010.5
20260507080023 22 171 11.3 20.9 0.00 0.00 0.00 51 1010.4
20260507075527 22 174 12.9 17.7 0.00 0.00 0.00 51 1010.5
20260507075021 22 174 12.9 22.5 0.00 0.00 0.00 51 1010.6
20260507074516 21 178 14.5 22.5 0.00 0.00 0.00 52 1010.8
20260507074040 21 176 12.9 25.7 0.00 0.00 0.00 52 1010.9
20260507073516 21 173 12.9 19.3 0.00 0.00 0.00 52 1011.0
20260507073017 21 178 12.9 19.3 0.00 0.00 0.00 52 1011.1
20260507072523 21 157 11.3 16.1 0.00 0.00 0.00 53 1011.2
20260507072022 21 170 9.7 19.3 0.00 0.00 0.00 54 1011.2
20260507071545 21 170 12.9 20.9 0.00 0.00 0.00 55 1011.2
20260507071018 21 174 11.3 20.9 0.00 0.00 0.00 56 1011.2
20260507070519 21 173 14.5 30.6 0.00 0.00 0.00 56 1011.2
20260507070022 21 173 12.9 20.9 0.00 0.00 0.00 57 1011.2
20260507065542 20 170 11.3 17.7 0.00 0.00 0.00 57 1011.4
20260507065025 20 167 12.9 20.9 0.00 0.00 0.00 58 1011.5
20260507064525 20 173 9.7 17.7 0.00 0.00 0.00 59 1011.6
20260507064019 20 177 11.3 22.5 0.00 0.00 0.00 61 1011.6
20260507063526 20 173 9.7 17.7 0.00 0.00 0.00 62 1011.6
20260507063023 19 175 11.3 20.9 0.00 0.00 0.00 64 1011.6
20260507062518 19 179 8.0 12.9 0.00 0.00 0.00 66 1011.6
20260507062023 18 175 8.0 16.1 0.00 0.00 0.00 68 1011.6
20260507061519 18 172 6.4 17.7 0.00 0.00 0.00 70 1011.7
20260507061021 17 179 6.4 12.9 0.00 0.00 0.00 73 1011.6
20260507060541 17 182 4.8 16.1 0.00 0.00 0.00 75 1011.6
20260507060021 17 187 0.0 3.2 0.00 0.00 0.00 76 1011.7
20260507055515 17 179 3.2 6.4 0.00 0.00 0.00 77 1011.7
20260507055019 17 181 3.2 6.4 0.00 0.00 0.00 77 1011.8
20260507054526 16 179 1.6 6.4 0.00 0.00 0.00 78 1011.8
20260507054022 16 178 1.6 6.4 0.00 0.00 0.00 78 1011.8
20260507053520 17 169 0.0 4.8 0.00 0.00 0.00 78 1011.8
20260507053017 17 141 1.6 4.8 0.00 0.00 0.00 78 1012.0
20260507052524 17 170 3.2 9.7 0.00 0.00 0.00 78 1012.0
20260507052026 17 166 3.2 9.7 0.00 0.00 0.00 78 1012.1
20260507051543 16 178 1.6 11.3 0.00 0.00 0.00 78 1012.1
20260507051022 17 163 4.8 14.5 0.00 0.00 0.00 78 1012.1
20260507050543 17 172 6.4 12.9 0.00 0.00 0.00 78 1012.1
20260507050016 17 173 6.4 16.1 0.00 0.00 0.00 78 1012.0
20260507045542 17 184 6.4 12.9 0.00 0.00 0.00 78 1011.9
20260507045024 17 178 6.4 12.9 0.00 0.00 0.00 77 1012.1
20260507044525 16 172 1.6 6.4 0.00 0.00 0.00 77 1012.2
20260507044042 16 187 1.6 4.8 0.00 0.00 0.00 78 1012.2
20260507043525 16 176 3.2 8.0 0.00 0.00 0.00 77 1012.1
20260507043043 16 173 1.6 6.4 0.00 0.00 0.00 77 1012.1
20260507042524 17 162 1.6 6.4 0.00 0.00 0.00 77 1012.3
20260507042020 17 168 4.8 9.7 0.00 0.00 0.00 77 1012.3
20260507041525 17 182 6.4 12.9 0.00 0.00 0.00 76 1012.2
20260507041017 17 178 4.8 12.9 0.00 0.00 0.00 76 1012.3
20260507040545 17 179 3.2 9.7 0.00 0.00 0.00 75 1012.3
20260507040025 17 173 6.4 11.3 0.00 0.00 0.00 75 1012.1
20260507035558 17 168 4.8 8.0 0.00 0.00 0.00 75 1012.0
20260507035040 17 175 4.8 11.3 0.00 0.00 0.00 76 1011.9
20260507034525 17 178 4.8 11.3 0.00 0.00 0.00 77 1011.9
20260507034020 16 179 6.4 12.9 0.00 0.00 0.00 78 1011.8
20260507033519 16 179 4.8 8.0 0.00 0.00 0.00 78 1011.8
20260507033025 17 174 1.6 6.4 0.00 0.00 0.00 78 1011.8
20260507032520 17 178 1.6 3.2 0.00 0.00 0.00 78 1011.8
20260507032019 17 180 1.6 4.8 0.00 0.00 0.00 78 1011.7
20260507031543 17 172 0.0 1.6 0.00 0.00 0.00 79 1011.8
20260507031017 17 158 0.0 1.6 0.00 0.00 0.00 79 1011.8
20260507030522 17 0.0 0.0 0.00 0.00 0.00 79 1011.9
20260507030019 17 171 0.0 3.2 0.00 0.00 0.00 80 1011.7
20260507025517 17 180 0.0 1.6 0.00 0.00 0.00 80 1011.8
20260507025025 17 178 1.6 4.8 0.00 0.00 0.00 80 1011.8
20260507024522 17 172 1.6 4.8 0.00 0.00 0.00 80 1011.6
20260507024024 17 173 1.6 3.2 0.00 0.00 0.00 80 1011.6
20260507023519 17 169 1.6 3.2 0.00 0.00 0.00 80 1011.7
20260507023016 17 176 3.2 4.8 0.00 0.00 0.00 80 1011.8
20260507022524 16 174 3.2 6.4 0.00 0.00 0.00 80 1011.7
20260507022016 17 175 0.0 3.2 0.00 0.00 0.00 80 1012.0
20260507021521 17 184 1.6 8.0 0.00 0.00 0.00 80 1012.1
20260507021022 17 178 0.0 3.2 0.00 0.00 0.00 80 1012.1
20260507020521 17 51 0.0 1.6 0.00 0.00 0.00 80 1012.1
20260507020023 17 166 0.0 3.2 0.00 0.00 0.00 80 1012.1
20260507015541 17 177 3.2 8.0 0.00 0.00 0.00 80 1012.0
20260507015026 17 185 3.2 8.0 0.00 0.00 0.00 80 1012.0
20260507014538 17 181 3.2 8.0 0.00 0.00 0.00 80 1011.9
20260507014016 17 175 4.8 9.7 0.00 0.00 0.00 80 1011.9
20260507013525 17 173 6.4 9.7 0.00 0.00 0.00 80 1012.2
20260507013017 17 180 3.2 6.4 0.00 0.00 0.00 80 1012.3
20260507012518 17 177 3.2 6.4 0.00 0.00 0.00 80 1012.4
20260507012022 17 178 4.8 8.0 0.00 0.00 0.00 80 1012.3
20260507011520 17 175 4.8 8.0 0.00 0.00 0.00 80 1012.3
20260507011024 17 174 6.4 9.7 0.00 0.00 0.00 80 1012.4
20260507010525 16 175 6.4 9.7 0.00 0.00 0.00 80 1012.5
20260507010021 16 177 8.0 14.5 0.00 0.00 0.00 80 1012.4
20260507005517 17 185 8.0 12.9 0.00 0.00 0.00 80 1012.5
20260507005023 17 176 6.4 12.9 0.00 0.00 0.00 80 1012.4
20260507004521 17 173 4.8 11.3 0.00 0.00 0.00 80 1012.5
20260507004017 17 173 4.8 8.0 0.00 0.00 0.00 80 1012.6
20260507003537 17 173 4.8 6.4 0.00 0.00 0.00 81 1012.7
20260507003025 17 178 3.2 4.8 0.00 0.00 0.00 81 1012.7
20260507002520 17 179 3.2 9.7 0.00 0.00 0.00 81 1012.8
20260507002039 17 175 1.6 4.8 0.00 0.00 0.00 81 1012.8
20260507001529 17 176 3.2 6.4 0.00 0.00 0.00 81 1012.8
20260507001020 17 170 3.2 9.7 0.00 0.00 0.00 81 1012.8
20260507000618 17 175 4.8 8.0 0.00 0.00 0.00 81 1012.8
20260507000024 17 178 6.4 12.9 0.00 0.00 0.00 81 1012.8
20260506235527 17 173 6.4 14.5 0.00 0.00 0.00 81 1012.7
20260506235028 17 177 6.4 11.3 0.00 0.00 0.00 81 1012.8
20260506234537 17 176 4.8 11.3 0.00 0.00 0.00 81 1012.9
20260506234025 17 175 6.4 12.9 0.00 0.00 0.00 81 1012.9
20260506233519 17 176 6.4 11.3 0.00 0.00 0.00 81 1012.9
20260506233036 17 171 8.0 11.3 0.00 0.00 0.00 81 1012.8
20260506232526 17 169 9.7 14.5 0.00 0.00 0.00 81 1012.7
20260506232025 17 183 9.7 16.1 0.00 0.00 0.00 81 1012.7
20260506231518 17 171 11.3 19.3 0.00 0.00 0.00 80 1012.6
20260506231026 17 186 11.3 17.7 0.00 0.00 0.00 80 1012.6
20260506230529 17 174 11.3 20.9 0.00 0.00 0.00 80 1012.5
20260506230028 17 174 12.9 25.7 0.00 0.00 0.00 80 1012.4
20260506225525 17 173 14.5 20.9 0.00 0.00 0.00 80 1012.4
20260506225041 17 171 12.9 24.1 0.00 0.00 0.00 80 1012.4
20260506224526 17 177 12.9 20.9 0.00 0.00 0.00 80 1012.4
20260506224022 17 181 12.9 24.1 0.00 0.00 0.00 80 1012.3
20260506223525 17 184 12.9 24.1 0.00 0.00 0.00 80 1012.3
20260506223025 17 177 9.7 17.7 0.00 0.00 0.00 80 1012.2
20260506222517 17 187 8.0 12.9 0.00 0.00 0.00 80 1012.2
20260506222021 17 173 9.7 16.1 0.00 0.00 0.00 80 1012.3
20260506221515 17 179 9.7 19.3 0.00 0.00 0.00 80 1012.2
20260506221026 17 170 11.3 19.3 0.00 0.00 0.00 80 1012.0
20260506220542 17 184 11.3 22.5 0.00 0.00 0.00 80 1011.9
20260506220026 17 171 9.7 16.1 0.00 0.00 0.00 81 1012.0
20260506215523 17 174 9.7 16.1 0.00 0.00 0.00 81 1012.0
20260506215042 17 175 9.7 19.3 0.00 0.00 0.00 81 1012.0
20260506214602 17 179 11.3 16.1 0.00 0.00 0.00 81 1011.9
20260506214024 17 172 9.7 19.3 0.00 0.00 0.00 81 1011.8
20260506213539 16 180 8.0 14.5 0.00 0.00 0.00 81 1011.7
20260506213026 16 177 8.0 14.5 0.00 0.00 0.00 82 1011.6
20260506212542 16 179 4.8 8.0 0.00 0.00 0.00 82 1011.6
20260506212047 16 178 6.4 9.7 0.00 0.00 0.00 82 1011.5
20260506211517 17 177 6.4 9.7 0.00 0.00 0.00 82 1011.6
20260506211024 17 163 4.8 8.0 0.00 0.00 0.00 82 1011.7
20260506210527 17 169 4.8 8.0 0.00 0.00 0.00 81 1011.7
20260506210024 17 168 4.8 8.0 0.00 0.00 0.00 82 1011.9
20260506205527 17 167 3.2 6.4 0.00 0.00 0.00 82 1012.0
20260506205017 17 175 4.8 9.7 0.00 0.00 0.00 81 1012.1
20260506204542 17 175 3.2 8.0 0.00 0.00 0.00 81 1012.1
20260506204027 17 174 4.8 11.3 0.00 0.00 0.00 81 1012.3
20260506203517 17 174 4.8 9.7 0.00 0.00 0.00 81 1012.6
20260506203025 17 181 4.8 8.0 0.00 0.00 0.00 81 1012.8
20260506202542 16 166 6.4 14.5 0.00 0.00 0.00 82 1012.8
20260506202042 16 175 6.4 12.9 0.00 0.00 0.00 81 1013.0
20260506201526 16 181 6.4 9.7 0.00 0.00 0.00 81 1013.1
20260506201023 16 179 6.4 11.3 0.00 0.00 0.00 81 1013.2
20260506200525 16 175 6.4 12.9 0.00 0.00 0.00 81 1013.3
20260506200026 16 177 8.0 12.9 0.00 0.00 0.00 81 1013.3
20260506195525 17 174 8.0 12.9 0.00 0.00 0.00 81 1013.3
20260506195026 17 173 8.0 16.1 0.00 0.00 0.00 81 1013.3
20260506194522 16 168 6.4 9.7 0.00 0.00 0.00 81 1013.2
20260506194025 16 177 6.4 11.3 0.00 0.00 0.00 81 1013.2
20260506193536 16 179 4.8 11.3 0.00 0.00 0.00 81 1013.3
20260506193024 17 175 9.7 17.7 0.00 0.00 0.00 81 1013.3
20260506192526 17 181 9.7 17.7 0.00 0.00 0.00 81 1013.2
20260506192047 16 177 9.7 16.1 0.00 0.00 0.00 81 1013.3
20260506191521 17 179 9.7 16.1 0.00 0.00 0.00 81 1013.3
20260506191021 17 179 9.7 14.5 0.00 0.00 0.00 81 1013.4
20260506190519 17 178 11.3 17.7 0.00 0.00 0.00 81 1013.4
20260506190104 17 173 9.7 14.5 0.00 0.00 0.00 81 1013.3
20260506185516 17 172 8.0 11.3 0.00 0.00 0.00 81 1013.2
20260506185025 17 171 8.0 11.3 0.00 0.00 0.00 80 1013.1
20260506184516 17 173 11.3 20.9 0.00 0.00 0.00 80 1013.1
20260506184016 17 182 9.7 16.1 0.00 0.00 0.00 80 1013.0
20260506183520 17 176 9.7 17.7 0.00 0.00 0.00 80 1012.9
20260506183022 17 167 11.3 19.3 0.00 0.00 0.00 80 1013.0
20260506182519 17 174 11.3 19.3 0.00 0.00 0.00 80 1012.9
20260506182028 17 185 11.3 19.3 0.00 0.00 0.00 80 1012.8
20260506181517 17 167 11.3 17.7 0.00 0.00 0.00 80 1012.7
20260506181026 17 174 8.0 11.3 0.00 0.00 0.00 80 1012.7
20260506180522 17 171 9.7 16.1 0.00 0.00 0.00 80 1012.5
20260506180027 17 170 9.7 17.7 0.00 0.00 0.00 80 1012.4
20260506175525 17 177 8.0 17.7 0.00 0.00 0.00 80 1012.3
20260506175016 17 181 9.7 14.5 0.00 0.00 0.00 80 1012.3
20260506174536 17 179 9.7 16.1 0.00 0.00 0.00 80 1012.2
20260506174022 17 175 9.7 14.5 0.00 0.00 0.00 80 1012.3
20260506173516 17 179 9.7 12.9 0.00 0.00 0.00 80 1012.3
20260506173023 17 171 12.9 22.5 0.00 0.00 0.00 80 1012.4
20260506172526 17 177 9.7 16.1 0.00 0.00 0.00 79 1012.5
20260506172022 17 181 9.7 17.7 0.00 0.00 0.00 79 1012.5
20260506171526 17 174 9.7 16.1 0.00 0.00 0.00 79 1012.5
20260506171020 18 178 11.3 19.3 0.00 0.00 0.00 79 1012.7
20260506170518 18 171 8.0 14.5 0.00 0.00 0.00 79 1012.7
20260506170023 18 179 9.7 16.1 0.00 0.00 0.00 79 1012.7
20260506165520 18 181 11.3 17.7 0.00 0.00 0.00 79 1012.6
20260506165019 18 168 9.7 17.7 0.00 0.00 0.00 79 1012.5
20260506164516 18 175 9.7 16.1 0.00 0.00 0.00 79 1012.6
20260506164017 18 167 9.7 14.5 0.00 0.00 0.00 79 1012.8
20260506163526 18 181 9.7 16.1 0.00 0.00 0.00 79 1012.8
20260506163016 18 179 11.3 17.7 0.00 0.00 0.00 79 1012.8
20260506162525 18 183 9.7 20.9 0.00 0.00 0.00 79 1012.8
20260506162017 18 177 8.0 14.5 0.00 0.00 0.00 79 1012.9
20260506161527 18 176 6.4 12.9 0.00 0.00 0.00 79 1013.0
20260506161017 18 176 8.0 12.9 0.00 0.00 0.00 79 1013.1
20260506160519 18 171 9.7 14.5 0.00 0.00 0.00 79 1013.1
20260506160020 18 176 9.7 19.3 0.00 0.00 0.00 79 1013.1
20260506155518 18 177 8.0 16.1 0.00 0.00 0.00 79 1013.1
20260506155016 18 176 9.7 16.1 0.00 0.00 0.00 79 1013.1
20260506154523 18 178 9.7 17.7 0.00 0.00 0.00 79 1013.1
20260506154017 18 174 11.3 17.7 0.00 0.00 0.00 79 1013.2
20260506153526 18 177 9.7 14.5 0.00 0.00 0.00 79 1013.3
20260506153026 18 182 11.3 19.3 0.00 0.00 0.00 79 1013.3
20260506152525 18 172 11.3 19.3 0.00 0.00 0.00 79 1013.3
20260506152028 18 180 11.3 20.9 0.00 0.00 0.00 79 1013.2
20260506151518 18 180 11.3 19.3 0.00 0.00 0.00 79 1013.3
20260506151046 18 171 14.5 27.4 0.00 0.00 0.00 79 1013.3
20260506150525 18 175 14.5 22.5 0.00 0.00 0.00 79 1013.2
20260506150024 18 172 16.1 24.1 0.00 0.00 0.00 79 1013.3
20260506145528 18 175 16.1 25.7 0.00 0.00 0.00 79 1013.3
20260506145020 18 171 16.1 25.7 0.00 0.00 0.00 79 1013.4
20260506144515 18 170 12.9 20.9 0.00 0.00 0.00 79 1013.3
20260506144025 18 173 12.9 19.3 0.00 0.00 0.00 79 1013.0
20260506143541 18 166 12.9 24.1 0.00 0.00 0.00 79 1012.9
20260506143021 18 180 16.1 22.5 0.00 0.00 0.00 79 1012.9
20260506142537 18 179 16.1 24.1 0.00 0.00 0.00 79 1012.8
20260506142023 18 173 14.5 27.4 0.00 0.00 0.00 79 1012.8
20260506141520 18 180 14.5 24.1 0.00 0.00 0.00 79 1012.8
20260506141020 18 172 12.9 20.9 0.00 0.00 0.00 79 1012.9
20260506140518 18 182 14.5 19.3 0.00 0.00 0.00 79 1013.0
20260506140024 18 183 16.1 24.1 0.00 0.00 0.00 79 1013.1
20260506135525 18 185 14.5 24.1 0.00 0.00 0.00 79 1013.1
20260506135021 18 175 14.5 20.9 0.00 0.00 0.00 79 1013.1
20260506134525 18 186 14.5 22.5 0.00 0.00 0.00 79 1012.9
20260506134017 18 172 16.1 27.4 0.00 0.00 0.00 78 1012.9
20260506133518 18 174 12.9 19.3 0.00 0.00 0.00 79 1013.0
20260506133023 18 175 12.9 24.1 0.00 0.00 0.00 79 1013.1
20260506132520 18 187 14.5 22.5 0.00 0.00 0.00 79 1013.1
20260506132021 18 183 14.5 22.5 0.00 0.00 0.00 79 1013.2
20260506131521 18 180 14.5 25.7 0.00 0.00 0.00 78 1013.2
20260506131108 18 172 16.1 24.1 0.00 0.00 0.00 78 1013.3
20260506130519 18 175 12.9 25.7 0.00 0.00 0.00 78 1013.5
20260506130027 18 177 16.1 27.4 0.00 0.00 0.00 78 1013.6
20260506125545 18 184 14.5 22.5 0.00 0.00 0.00 78 1013.7
20260506125026 18 169 16.1 24.1 0.00 0.00 0.00 78 1013.7
20260506124606 18 173 14.5 22.5 0.00 0.00 0.00 78 1013.6
20260506124019 18 172 12.9 25.7 0.00 0.00 0.00 78 1013.5
20260506123522 18 176 14.5 22.5 0.00 0.00 0.00 78 1013.4
20260506123021 18 180 16.1 22.5 0.00 0.00 0.00 78 1013.5
20260506122520 18 174 14.5 20.9 0.00 0.00 0.00 78 1013.5
20260506122017 18 179 14.5 22.5 0.00 0.00 0.00 78 1013.5
20260506121524 18 173 12.9 20.9 0.00 0.00 0.00 78 1013.6
20260506121042 18 173 14.5 22.5 0.00 0.00 0.00 78 1013.6
20260506120525 18 171 14.5 20.9 0.00 0.00 0.00 78 1013.8
20260506120118 18 177 14.5 22.5 0.00 0.00 0.00 78 1013.6
20260506115520 18 178 16.1 22.5 0.00 0.00 0.00 78 1013.8
20260506115020 18 175 17.7 25.7 0.00 0.00 0.00 78 1013.8
20260506114522 18 181 19.3 27.4 0.00 0.00 0.00 78 1013.8
20260506114016 18 177 16.1 24.1 0.00 0.00 0.00 78 1013.9
20260506113524 18 170 14.5 22.5 0.00 0.00 0.00 78 1014.0
20260506113022 18 172 14.5 24.1 0.00 0.00 0.00 78 1014.0
20260506112541 18 173 14.5 20.9 0.00 0.00 0.00 79 1013.9
20260506112016 18 177 17.7 24.1 0.00 0.00 0.00 79 1013.9
20260506111522 18 187 16.1 24.1 0.00 0.00 0.00 78 1013.9
20260506111017 18 177 17.7 25.7 0.00 0.00 0.00 78 1014.1
20260506110521 18 176 17.7 25.7 0.00 0.00 0.00 78 1014.2
20260506110016 18 176 16.1 25.7 0.00 0.00 0.00 78 1014.1
20260506105527 18 180 16.1 24.1 0.00 0.00 0.00 79 1014.0
20260506105018 18 178 14.5 25.7 0.00 0.00 0.00 79 1014.1
20260506104543 18 173 16.1 27.4 0.00 0.00 0.00 79 1014.2
20260506104024 18 178 16.1 22.5 0.00 0.00 0.00 79 1014.1